Home > Weather > Wermelskirchen > Past weeks

Flag for Germany Weather for the Past 2 Weeks in Wermelskirchen, North Rhine-Westphalia, Germany

Now
48 °F

Passing clouds.


Feels Like: 44 °F
Forecast: 43 / 49 °F
Wind: 10 mph from Southeast

Location: Koeln / Bonn

Current Time: Feb 5, 2016 at 11:55:59 PM

Latest Report: Feb 5, 2016 at 11:20 PM


Visibility: N/A

Pressure: 30.09 "Hg

Humidity: 87%

Dew point: 45 °F

Location of WermelskirchenLocation

Historic Weather in Wermelskirchen — Graph

°F

Wermelskirchen Temperature Yesterday

Maximum temperature yesterday: 45 °F (at 4:20 PM)
Minimum temperature yesterday: 37 °F (at 5:20 AM)
Average temperature yesterday: 40 °F

High & Low Weather Summary for the Past Weeks

 TemperatureHumidityPressure
High57 °F (Jan 25, 2:50 PM)100% (Jan 22, 10:50 PM)30.57 "Hg (Jan 22, 10:50 PM)
Low25 °F (Jan 22, 5:50 AM)55% (Jan 27, 3:20 PM)29.74 "Hg (Jan 30, 2:20 PM)
Average44 °F84%30.17 "Hg
* Reported Jan 21 10:20 PM — Feb 5 10:20 PM, Wermelskirchen, Weather by CustomWeather, © 2016

Note: Actual official high and low records may vary slightly from our data, if they occured in-between our weather recording intervals... More about our weather records

Advertising

Wermelskirchen Weather History for the Previous 24 Hours

 ConditionsComfort  
Time TempWeatherWind HumidityBarometerVisibility
10:20 PM
Fri, Feb 5
50 °FPartly cloudy.10 mph76%30.12 "HgN/A
9:50 PM48 °FClear.12 mph82%30.12 "Hg10 mi
9:20 PM48 °FClear.10 mph82%30.12 "Hg10 mi
8:50 PM46 °FClear.9 mph87%30.15 "Hg10 mi
8:20 PM48 °FPassing clouds.9 mph87%30.15 "HgN/A
7:50 PM48 °FPassing clouds.9 mph87%30.15 "HgN/A
6:50 PM50 °FPartly cloudy.10 mph88%30.18 "HgN/A
6:20 PM50 °FPassing clouds.9 mph88%30.18 "HgN/A
5:50 PM50 °FPassing clouds.8 mph88%30.18 "HgN/A
5:20 PM50 °FPartly sunny.8 mph88%30.18 "HgN/A
4:50 PM48 °FPartly sunny.7 mph94%30.18 "HgN/A
4:20 PM48 °FPartly sunny.6 mph94%30.18 "HgN/A
3:50 PM50 °FPartly sunny.5 mph88%30.18 "HgN/A
3:20 PM48 °FPartly sunny.5 mph94%30.18 "HgN/A
2:50 PM48 °FPartly sunny.6 mph94%30.21 "HgN/A
2:20 PM48 °FPartly sunny.6 mph94%30.21 "HgN/A
1:50 PM46 °FPartly sunny.6 mph100%30.21 "HgN/A
1:20 PM46 °FPartly sunny.7 mph93%30.21 "HgN/A
12:50 PM46 °FPartly sunny.7 mph93%30.24 "HgN/A
12:20 PM45 °FPartly sunny.8 mph100%30.24 "HgN/A
11:50 AM45 °FPartly sunny.8 mph100%30.27 "HgN/A
11:20 AM45 °FDrizzle. Partly sunny.9 mph100%30.27 "Hg5 mi
10:50 AM43 °FDrizzle. Partly sunny.10 mph100%30.27 "HgN/A
10:20 AM43 °FOvercast.7 mph100%30.27 "HgN/A
9:50 AM41 °FOvercast.7 mph100%30.27 "HgN/A
9:20 AM41 °FOvercast.7 mph100%30.27 "HgN/A
8:50 AM41 °FPartly sunny.8 mph100%30.27 "HgN/A
8:20 AM39 °FDrizzle. Broken clouds.6 mph100%30.27 "HgN/A
7:50 AM39 °FPartly cloudy.8 mph100%30.27 "HgN/A
7:20 AM39 °FPassing clouds.8 mph100%30.27 "HgN/A
6:50 AM39 °FPassing clouds.8 mph93%30.27 "HgN/A
6:20 AM39 °FPassing clouds.7 mph93%30.30 "HgN/A
5:50 AM39 °FPassing clouds.7 mph93%30.30 "HgN/A
5:20 AM39 °FPartly cloudy.8 mph93%30.30 "HgN/A
4:20 AM39 °FPassing clouds.6 mph93%30.30 "HgN/A
3:50 AM39 °FPassing clouds.5 mph93%30.30 "HgN/A
3:20 AM37 °FPassing clouds.5 mph100%30.30 "HgN/A
2:50 AM39 °FPassing clouds.5 mph93%30.30 "HgN/A
2:20 AM37 °FPassing clouds.5 mph100%30.30 "HgN/A
1:50 AM37 °FPassing clouds.5 mph100%30.30 "HgN/A
1:20 AM37 °FPassing clouds.5 mph100%30.30 "HgN/A
12:50 AM37 °FPassing clouds.5 mph100%30.30 "HgN/A
12:20 AM37 °FPassing clouds.2 mph100%30.30 "HgN/A
11:50 PM
Thu, Feb 4
37 °FPassing clouds.2 mph100%30.30 "HgN/A
Weather by CustomWeather, © 2016

See weather overviewHow to use our weather pages